AZU4854 SBKP-SBPF

Flight info

Callsign AZU4854
Flight time 1h 13m
Altitude 36000
Route ASETA DCT PUNTO
Aircraft A20N/M-SDFGHIRWY/LB1

Departure

Time 2026-04-15 11:52
Airport Viracopos International Airport (SBKP)

Arrival

Time 2026-04-15 13:06
Airport Lauro Kurtz Airport (SBPF)
Time Latitude Longitude Altitude Speed Heading
2026-04-15 11:17 -23.00360 -47.14934 2177 ft 0 kts 218°
2026-04-15 11:44 -23.00359 -47.14933 2177 ft 1 kts 218°
2026-04-15 11:44 -23.00347 -47.14923 2177 ft 2 kts 218°
2026-04-15 11:44 -23.00335 -47.14914 2177 ft 2 kts 218°
2026-04-15 11:45 -23.00327 -47.14900 2177 ft 2 kts 259°
2026-04-15 11:45 -23.00327 -47.14884 2177 ft 2 kts 292°
2026-04-15 11:45 -23.00331 -47.14876 2177 ft 1 kts 311°
2026-04-15 11:45 -23.00335 -47.14872 2177 ft 0 kts 308°
2026-04-15 11:48 -23.00332 -47.14875 2177 ft 0 kts 307°
2026-04-15 11:48 -23.00322 -47.14890 2177 ft 4 kts 307°
2026-04-15 11:49 -23.00299 -47.14923 2177 ft 7 kts 307°
2026-04-15 11:49 -23.00265 -47.14972 2177 ft 8 kts 307°
2026-04-15 11:49 -23.00223 -47.15027 2177 ft 9 kts 329°
2026-04-15 11:49 -23.00166 -47.14995 2177 ft 10 kts 38°
2026-04-15 11:50 -23.00107 -47.14946 2177 ft 11 kts 38°
2026-04-15 11:50 -23.00045 -47.14893 2177 ft 11 kts 37°
2026-04-15 11:50 -22.99994 -47.14826 2177 ft 11 kts 44°
2026-04-15 11:50 -22.99944 -47.14780 2177 ft 8 kts 40°
2026-04-15 11:51 -22.99921 -47.14758 2177 ft 4 kts 44°
2026-04-15 11:51 -22.99895 -47.14728 2177 ft 6 kts 46°
2026-04-15 11:51 -22.99864 -47.14693 2177 ft 2 kts 46°
2026-04-15 11:51 -22.99865 -47.14673 2177 ft 4 kts 116°
2026-04-15 11:52 -22.99969 -47.14526 2177 ft 57 kts 127°
2026-04-15 11:52 -23.00355 -47.13987 2178 ft 122 kts 128°
2026-04-15 11:52 -23.00993 -47.13104 2269 ft 164 kts 127°
2026-04-15 11:52 -23.01691 -47.12156 2860 ft 163 kts 126°
2026-04-15 11:53 -23.02435 -47.11240 3439 ft 168 kts 140°
2026-04-15 11:53 -23.03639 -47.10939 3772 ft 194 kts 188°
2026-04-15 11:53 -23.04967 -47.11416 4198 ft 212 kts 200°
2026-04-15 11:53 -23.06414 -47.12040 4566 ft 234 kts 200°
2026-04-15 11:54 -23.08009 -47.12680 5000 ft 254 kts 198°
2026-04-15 11:54 -23.09654 -47.13539 5469 ft 274 kts 220°
2026-04-15 11:54 -23.10771 -47.15204 6091 ft 283 kts 252°
2026-04-15 11:54 -23.11043 -47.17310 6956 ft 282 kts 271°
2026-04-15 11:55 -23.11041 -47.19424 7773 ft 286 kts 270°
2026-04-15 11:55 -23.11066 -47.21594 8541 ft 291 kts 269°
2026-04-15 11:55 -23.11105 -47.23778 9278 ft 295 kts 268°
2026-04-15 11:55 -23.11154 -47.26008 10008 ft 299 kts 268°
2026-04-15 11:56 -23.11210 -47.28286 10693 ft 304 kts 268°
2026-04-15 11:56 -23.11270 -47.30642 11063 ft 321 kts 268°
2026-04-15 11:56 -23.11332 -47.33112 11450 ft 335 kts 268°
2026-04-15 11:56 -23.11396 -47.35643 12084 ft 340 kts 268°
2026-04-15 11:57 -23.11460 -47.38215 12774 ft 342 kts 268°
2026-04-15 11:57 -23.11588 -47.43390 14060 ft 348 kts 268°
2026-04-15 11:57 -23.11654 -47.46028 14654 ft 351 kts 268°
2026-04-15 11:58 -23.11718 -47.48674 15239 ft 354 kts 269°
2026-04-15 11:58 -23.11781 -47.51338 15839 ft 356 kts 269°
2026-04-15 11:58 -23.11843 -47.54006 16425 ft 357 kts 269°
2026-04-15 11:58 -23.11907 -47.56708 16980 ft 359 kts 269°
2026-04-15 11:59 -23.11970 -47.59427 17504 ft 361 kts 269°
2026-04-15 11:59 -23.12033 -47.62147 18020 ft 364 kts 269°
2026-04-15 11:59 -23.12095 -47.64896 18537 ft 367 kts 269°
2026-04-15 11:59 -23.12158 -47.67656 19062 ft 369 kts 269°
2026-04-15 12:00 -23.12223 -47.70430 19568 ft 371 kts 269°
2026-04-15 12:00 -23.12287 -47.73224 20068 ft 373 kts 269°
2026-04-15 12:00 -23.12351 -47.76034 20553 ft 376 kts 269°
2026-04-15 12:00 -23.12414 -47.78871 21030 ft 378 kts 269°
2026-04-15 12:01 -23.12484 -47.81720 21489 ft 381 kts 267°
2026-04-15 12:01 -23.12918 -47.84569 21933 ft 384 kts 253°
2026-04-15 12:01 -23.13945 -47.87246 22384 ft 387 kts 240°
2026-04-15 12:01 -23.15424 -47.89672 22845 ft 389 kts 235°
2026-04-15 12:02 -23.17007 -47.92050 23309 ft 391 kts 234°
2026-04-15 12:02 -23.18637 -47.94423 23769 ft 393 kts 230°
2026-04-15 12:02 -23.20632 -47.96471 24223 ft 396 kts 220°
2026-04-15 12:02 -23.22796 -47.98334 24719 ft 397 kts 219°
2026-04-15 12:03 -23.24960 -48.00219 25161 ft 399 kts 220°
2026-04-15 12:03 -23.27105 -48.02092 25571 ft 402 kts 220°
2026-04-15 12:03 -23.29291 -48.04001 26004 ft 404 kts 220°
2026-04-15 12:03 -23.31502 -48.05931 26416 ft 406 kts 220°
2026-04-15 12:04 -23.33701 -48.07853 26817 ft 408 kts 220°
2026-04-15 12:04 -23.35925 -48.09794 27208 ft 410 kts 220°
2026-04-15 12:04 -23.38136 -48.11726 27625 ft 412 kts 220°
2026-04-15 12:04 -23.40385 -48.13691 27995 ft 414 kts 220°
2026-04-15 12:05 -23.42642 -48.15664 28378 ft 416 kts 220°
2026-04-15 12:05 -23.44883 -48.17623 28743 ft 418 kts 220°
2026-04-15 12:05 -23.47158 -48.19611 29132 ft 420 kts 220°
2026-04-15 12:05 -23.49443 -48.21610 29533 ft 421 kts 220°
2026-04-15 12:06 -23.51731 -48.23615 29909 ft 422 kts 220°
2026-04-15 12:06 -23.54015 -48.25614 30240 ft 424 kts 220°
2026-04-15 12:06 -23.56328 -48.27640 30639 ft 424 kts 221°
2026-04-15 12:06 -23.58596 -48.29627 31106 ft 423 kts 221°
2026-04-15 12:07 -23.60881 -48.31630 31590 ft 420 kts 221°
2026-04-15 12:07 -23.63142 -48.33613 32060 ft 418 kts 221°
2026-04-15 12:07 -23.65394 -48.35592 32473 ft 416 kts 221°
2026-04-15 12:07 -23.67657 -48.37579 32869 ft 415 kts 221°
2026-04-15 12:08 -23.69898 -48.39547 33285 ft 413 kts 221°
2026-04-15 12:08 -23.72123 -48.41509 33715 ft 411 kts 221°
2026-04-15 12:08 -23.74330 -48.43456 34104 ft 409 kts 221°
2026-04-15 12:08 -23.76545 -48.45410 34435 ft 408 kts 220°
2026-04-15 12:09 -23.78750 -48.47351 34700 ft 409 kts 220°
2026-04-15 12:09 -23.80969 -48.49306 34941 ft 410 kts 220°
2026-04-15 12:09 -23.83174 -48.51248 35165 ft 411 kts 220°
2026-04-15 12:09 -23.85411 -48.53220 35378 ft 412 kts 220°
2026-04-15 12:10 -23.87647 -48.55192 35616 ft 412 kts 219°
2026-04-15 12:10 -23.89882 -48.57166 35805 ft 414 kts 219°
2026-04-15 12:10 -23.92108 -48.59131 35953 ft 416 kts 219°
2026-04-15 12:10 -23.94373 -48.61130 36116 ft 417 kts 219°
2026-04-15 12:11 -23.96629 -48.63121 36138 ft 417 kts 219°
2026-04-15 12:11 -24.01150 -48.67115 36144 ft 416 kts 219°
2026-04-15 12:12 -24.05635 -48.71082 36145 ft 417 kts 219°
2026-04-15 12:12 -24.07885 -48.73074 36246 ft 418 kts 219°
2026-04-15 12:12 -24.10158 -48.75090 36505 ft 417 kts 219°
2026-04-15 12:12 -24.12413 -48.77091 36756 ft 416 kts 219°
2026-04-15 12:13 -24.14658 -48.79084 37002 ft 415 kts 218°
2026-04-15 12:13 -24.16865 -48.81045 37258 ft 414 kts 218°
2026-04-15 12:13 -24.19096 -48.83028 37456 ft 413 kts 218°
2026-04-15 12:13 -24.21346 -48.85024 37664 ft 413 kts 217°
2026-04-15 12:14 -24.23570 -48.87001 37860 ft 412 kts 217°
2026-04-15 12:14 -24.25777 -48.88962 38026 ft 412 kts 217°
2026-04-15 12:14 -24.27997 -48.90934 38165 ft 412 kts 217°
2026-04-15 12:15 -24.32445 -48.94890 38161 ft 412 kts 217°
2026-04-15 12:15 -24.36887 -48.98843 38162 ft 411 kts 217°
2026-04-15 12:16 -24.41348 -49.02817 38164 ft 412 kts 217°
2026-04-15 12:16 -24.45785 -49.06778 38165 ft 413 kts 217°
2026-04-15 12:17 -24.50232 -49.10752 38166 ft 413 kts 217°
2026-04-15 12:17 -24.54670 -49.14720 38162 ft 412 kts 217°
2026-04-15 12:18 -24.59111 -49.18696 38164 ft 411 kts 217°
2026-04-15 12:18 -24.63522 -49.22648 38157 ft 410 kts 217°
2026-04-15 12:19 -24.67971 -49.26633 38151 ft 412 kts 217°
2026-04-15 12:19 -24.72390 -49.30600 38148 ft 412 kts 217°
2026-04-15 12:20 -24.76836 -49.34595 38151 ft 410 kts 217°
2026-04-15 12:20 -24.81258 -49.38571 38156 ft 410 kts 217°
2026-04-15 12:21 -24.85660 -49.42532 38165 ft 411 kts 217°
2026-04-15 12:21 -24.90093 -49.46528 38164 ft 411 kts 217°
2026-04-15 12:22 -24.94512 -49.50511 38166 ft 411 kts 217°
2026-04-15 12:22 -24.98905 -49.54478 38166 ft 411 kts 217°
2026-04-15 12:23 -25.03336 -49.58482 38170 ft 408 kts 217°
2026-04-15 12:23 -25.07718 -49.62443 38175 ft 409 kts 217°
2026-04-15 12:24 -25.12128 -49.66437 38182 ft 409 kts 217°
2026-04-15 12:24 -25.16516 -49.70411 38185 ft 409 kts 218°
2026-04-15 12:25 -25.20915 -49.74400 38184 ft 410 kts 217°
2026-04-15 12:25 -25.25325 -49.78404 38186 ft 410 kts 217°
2026-04-15 12:26 -25.29721 -49.82400 38185 ft 410 kts 217°
2026-04-15 12:26 -25.34150 -49.86429 38185 ft 410 kts 217°
2026-04-15 12:27 -25.38544 -49.90428 38185 ft 409 kts 217°
2026-04-15 12:27 -25.42910 -49.94406 38184 ft 410 kts 218°
2026-04-15 12:28 -25.47333 -49.98443 38182 ft 410 kts 217°
2026-04-15 12:28 -25.51731 -50.02457 38182 ft 411 kts 218°
2026-04-15 12:29 -25.56109 -50.06460 38179 ft 410 kts 218°
2026-04-15 12:29 -25.60520 -50.10497 38178 ft 411 kts 218°
2026-04-15 12:30 -25.64934 -50.14540 38177 ft 413 kts 218°
2026-04-15 12:30 -25.69343 -50.18583 38177 ft 412 kts 218°
2026-04-15 12:31 -25.73765 -50.22639 38174 ft 412 kts 218°
2026-04-15 12:31 -25.78171 -50.26687 38174 ft 412 kts 218°
2026-04-15 12:32 -25.82596 -50.30754 38174 ft 413 kts 218°
2026-04-15 12:32 -25.87015 -50.34821 38174 ft 414 kts 218°
2026-04-15 12:33 -25.91440 -50.38901 38169 ft 413 kts 218°
2026-04-15 12:33 -25.95853 -50.42970 38173 ft 414 kts 218°
2026-04-15 12:34 -26.00283 -50.47060 38174 ft 414 kts 218°
2026-04-15 12:34 -26.04725 -50.51164 38173 ft 415 kts 218°
2026-04-15 12:35 -26.09149 -50.55259 38174 ft 414 kts 218°
2026-04-15 12:35 -26.13563 -50.59345 38173 ft 415 kts 219°
2026-04-15 12:36 -26.18009 -50.63467 38172 ft 415 kts 219°
2026-04-15 12:36 -26.22437 -50.67576 38173 ft 417 kts 219°
2026-04-15 12:37 -26.26865 -50.71690 38176 ft 416 kts 219°
2026-04-15 12:37 -26.31322 -50.75835 38173 ft 416 kts 219°
2026-04-15 12:38 -26.35755 -50.79961 38175 ft 416 kts 219°
2026-04-15 12:38 -26.40206 -50.84108 38174 ft 417 kts 219°
2026-04-15 12:39 -26.44670 -50.88272 38175 ft 418 kts 219°
2026-04-15 12:39 -26.49129 -50.92436 38182 ft 419 kts 219°
2026-04-15 12:40 -26.53582 -50.96600 38180 ft 419 kts 219°
2026-04-15 12:40 -26.58065 -51.00790 38178 ft 420 kts 220°
2026-04-15 12:41 -26.62555 -51.04998 38180 ft 420 kts 220°
2026-04-15 12:41 -26.67006 -51.09171 38178 ft 420 kts 220°
2026-04-15 12:42 -26.71471 -51.13364 38178 ft 421 kts 220°
2026-04-15 12:42 -26.75961 -51.17583 38178 ft 420 kts 220°
2026-04-15 12:43 -26.80410 -51.21769 38176 ft 419 kts 220°
2026-04-15 12:43 -26.84881 -51.25979 38164 ft 420 kts 220°
2026-04-15 12:44 -26.89346 -51.30188 37987 ft 427 kts 220°
2026-04-15 12:44 -26.91633 -51.32342 37694 ft 436 kts 220°
2026-04-15 12:44 -26.93976 -51.34552 37400 ft 444 kts 220°
2026-04-15 12:44 -26.96369 -51.36811 37103 ft 448 kts 220°
2026-04-15 12:45 -26.98728 -51.39039 36811 ft 449 kts 221°
2026-04-15 12:45 -27.01128 -51.41309 36517 ft 451 kts 221°
2026-04-15 12:45 -27.03517 -51.43571 36223 ft 452 kts 221°
2026-04-15 12:45 -27.05907 -51.45833 35872 ft 453 kts 221°
2026-04-15 12:46 -27.08322 -51.48120 35299 ft 455 kts 221°
2026-04-15 12:46 -27.10751 -51.50422 34531 ft 457 kts 222°
2026-04-15 12:46 -27.13184 -51.52728 33695 ft 457 kts 222°
2026-04-15 12:46 -27.15612 -51.55030 32840 ft 459 kts 222°
2026-04-15 12:47 -27.18048 -51.57343 32033 ft 462 kts 223°
2026-04-15 12:47 -27.20478 -51.59655 31242 ft 463 kts 223°
2026-04-15 12:47 -27.22938 -51.61995 30517 ft 463 kts 223°
2026-04-15 12:47 -27.25399 -51.64334 29843 ft 460 kts 223°
2026-04-15 12:48 -27.27814 -51.66634 29183 ft 458 kts 223°
2026-04-15 12:48 -27.30237 -51.68940 28513 ft 454 kts 223°
2026-04-15 12:48 -27.32632 -51.71227 27826 ft 452 kts 223°
2026-04-15 12:48 -27.35018 -51.73501 27085 ft 452 kts 223°
2026-04-15 12:49 -27.37442 -51.75817 26245 ft 454 kts 223°
2026-04-15 12:49 -27.39818 -51.78086 25592 ft 451 kts 223°
2026-04-15 12:49 -27.42194 -51.80353 24931 ft 449 kts 223°
2026-04-15 12:49 -27.44574 -51.82629 24289 ft 446 kts 223°
2026-04-15 12:50 -27.46917 -51.84869 23672 ft 443 kts 223°
2026-04-15 12:50 -27.49245 -51.87092 23057 ft 441 kts 223°
2026-04-15 12:50 -27.51597 -51.89341 22402 ft 440 kts 223°
2026-04-15 12:50 -27.53903 -51.91552 21798 ft 437 kts 223°
2026-04-15 12:51 -27.56206 -51.93762 21216 ft 434 kts 223°
2026-04-15 12:51 -27.58503 -51.95963 20604 ft 432 kts 223°
2026-04-15 12:51 -27.60802 -51.98172 19993 ft 430 kts 223°
2026-04-15 12:51 -27.63055 -52.00335 19406 ft 427 kts 223°
2026-04-15 12:52 -27.65314 -52.02507 18832 ft 424 kts 222°
2026-04-15 12:52 -27.67534 -52.04639 18237 ft 422 kts 222°
2026-04-15 12:52 -27.69779 -52.06799 17636 ft 420 kts 222°
2026-04-15 12:52 -27.71983 -52.08917 17047 ft 418 kts 222°
2026-04-15 12:53 -27.74178 -52.11028 16521 ft 414 kts 222°
2026-04-15 12:53 -27.76364 -52.13131 16005 ft 410 kts 222°
2026-04-15 12:53 -27.78501 -52.15192 15503 ft 406 kts 222°
2026-04-15 12:53 -27.80635 -52.17250 15001 ft 401 kts 222°
2026-04-15 12:54 -27.82765 -52.19304 14484 ft 397 kts 222°
2026-04-15 12:54 -27.84833 -52.21299 13978 ft 393 kts 222°
2026-04-15 12:54 -27.86904 -52.23301 13455 ft 389 kts 222°
2026-04-15 12:54 -27.88937 -52.25264 12946 ft 386 kts 222°
2026-04-15 12:55 -27.90983 -52.27246 12413 ft 382 kts 222°
2026-04-15 12:55 -27.92991 -52.29190 11875 ft 380 kts 222°
2026-04-15 12:55 -27.94989 -52.31122 11325 ft 378 kts 222°
2026-04-15 12:55 -27.96955 -52.33025 10947 ft 370 kts 222°
2026-04-15 12:56 -27.98887 -52.34896 10651 ft 360 kts 222°
2026-04-15 12:56 -28.00742 -52.36693 10480 ft 347 kts 222°
2026-04-15 12:56 -28.02550 -52.38446 10326 ft 334 kts 223°
2026-04-15 12:56 -28.04278 -52.40120 10148 ft 324 kts 223°
2026-04-15 12:57 -28.05982 -52.41775 9910 ft 316 kts 223°
2026-04-15 12:57 -28.07624 -52.43370 9626 ft 310 kts 223°
2026-04-15 12:57 -28.09253 -52.44953 9311 ft 303 kts 223°
2026-04-15 12:57 -28.10845 -52.46499 8828 ft 300 kts 223°
2026-04-15 12:58 -28.12412 -52.48026 8382 ft 296 kts 223°
2026-04-15 12:58 -28.13963 -52.49535 7994 ft 291 kts 223°
2026-04-15 12:58 -28.15488 -52.51020 7624 ft 288 kts 223°
2026-04-15 12:58 -28.16988 -52.52479 7271 ft 287 kts 223°
2026-04-15 12:59 -28.20008 -52.55425 6558 ft 286 kts 223°
2026-04-15 12:59 -28.21551 -52.56872 6200 ft 287 kts 215°
2026-04-15 12:59 -28.23405 -52.57619 5885 ft 284 kts 179°
2026-04-15 13:00 -28.25252 -52.57088 5827 ft 264 kts 142°
2026-04-15 13:00 -28.26552 -52.55774 5800 ft 247 kts 130°
2026-04-15 13:00 -28.27748 -52.54403 5722 ft 232 kts 131°
2026-04-15 13:00 -28.28858 -52.53196 5720 ft 211 kts 132°
2026-04-15 13:01 -28.29902 -52.52102 5600 ft 198 kts 130°
2026-04-15 13:01 -28.30574 -52.50848 5375 ft 177 kts 91°
2026-04-15 13:01 -28.30390 -52.49583 5252 ft 154 kts 63°
2026-04-15 13:01 -28.29970 -52.48485 5165 ft 152 kts 62°
2026-04-15 13:02 -28.29554 -52.47387 4963 ft 153 kts 62°
2026-04-15 13:02 -28.29145 -52.46274 4712 ft 149 kts 63°
2026-04-15 13:02 -28.28758 -52.45193 4511 ft 148 kts 64°
2026-04-15 13:02 -28.28374 -52.44108 4314 ft 147 kts 64°
2026-04-15 13:03 -28.27994 -52.43029 4137 ft 146 kts 64°
2026-04-15 13:03 -28.27633 -52.41992 3939 ft 138 kts 64°
2026-04-15 13:03 -28.27284 -52.40990 3745 ft 134 kts 64°
2026-04-15 13:03 -28.26946 -52.40025 3570 ft 133 kts 64°
2026-04-15 13:04 -28.26603 -52.39043 3394 ft 133 kts 64°
2026-04-15 13:04 -28.26266 -52.38069 3211 ft 132 kts 65°
2026-04-15 13:04 -28.25925 -52.37095 3032 ft 132 kts 65°
2026-04-15 13:04 -28.25592 -52.36139 2880 ft 132 kts 65°
2026-04-15 13:05 -28.25248 -52.35179 2696 ft 131 kts 65°
2026-04-15 13:05 -28.24902 -52.34218 2503 ft 131 kts 66°
2026-04-15 13:05 -28.24574 -52.33281 2390 ft 120 kts 66°
2026-04-15 13:05 -28.24361 -52.32676 2401 ft 57 kts 68°
2026-04-15 13:06 -28.24242 -52.32335 2405 ft 35 kts 68°
2026-04-15 13:06 -28.24182 -52.32163 2407 ft 9 kts 67°
2026-04-15 13:06 -28.24142 -52.32106 2408 ft 9 kts 35°
2026-04-15 13:06 -28.24156 -52.32090 2408 ft 5 kts 250°
2026-04-15 13:07 -28.24175 -52.32142 2408 ft 10 kts 248°
2026-04-15 13:07 -28.24211 -52.32245 2406 ft 17 kts 248°
2026-04-15 13:07 -28.24263 -52.32393 2404 ft 22 kts 248°
2026-04-15 13:07 -28.24320 -52.32558 2402 ft 20 kts 248°
2026-04-15 13:08 -28.24336 -52.32634 2401 ft 8 kts 297°
2026-04-15 13:08 -28.24286 -52.32669 2401 ft 8 kts 338°
2026-04-15 13:08 -28.24228 -52.32695 2401 ft 9 kts 338°
2026-04-15 13:08 -28.24166 -52.32724 2401 ft 9 kts 338°
2026-04-15 13:09 -28.24099 -52.32750 2401 ft 9 kts 340°
2026-04-15 13:09 -28.24075 -52.32760 2401 ft 3 kts 338°
2026-04-15 13:09 -28.24075 -52.32761 2401 ft 0 kts 338°